Regional Weather Roundup
Issued by NWS

Home | Current Version | Previous Version | Graphics & Text | Print | Product List | Glossary On
Versions: 1 2 3 4 5 6 7 8 9 10 11 12 13 14 15 16 17 18 19 20 21 22 23 24 25 26 27 28 29 30 31 32 33 34 35 36 37 38 39 40 41 42 43 44 45 46 47 48 49 50
000
ASUS43 KMKX 201011
RWRWI

WISCONSIN REGIONAL WEATHER ROUNDUP
NATIONAL WEATHER SERVICE MILWAUKEE/SULLIVAN WI
400 AM CST MON FEB 20 2017

NOTE: "FAIR" INDICATES FEW OR NO CLOUDS BELOW 12,000 FEET WITH NO
SIGNIFICANT WEATHER AND/OR OBSTRUCTIONS TO VISIBILITY.

WIZ001-002-006>008-014>016-023>028-201100-
NORTHWEST WISCONSIN

CITY           SKY/WX    TMP DP  RH WIND       PRES   REMARKS
SUPERIOR ARPT  MOCLDY    35  33  93 NE13G20   29.92F WCI  27
ASHLAND        CLOUDY    35  31  85 E3        29.95F
HAYWARD        CLOUDY    50  35  56 SE13G26   29.91F
SIREN          PTCLDY    48  36  63 SE9       29.86S
CUMBERLAND     CLOUDY    43  34  70 SE8       29.90F
RICE LAKE      CLOUDY    45  35  68 E10G16    29.92F
CHETEK         CLOUDY    44  36  73 E9        29.93S
LADYSMITH      PTCLDY    45  35  68 E9        29.97F
EAU CLAIRE     CLOUDY    47  36  65 SE9       29.92F
MENOMONIE      MOCLDY    44  37  75 E8        29.91F
NEW RICHMOND   CLOUDY    47  38  71 SE6       29.89R
OSCEOLA        CLOUDY    48  39  71 SE7       29.89R
$$

WIZ003>005-009-010-017-018-201100-
NORTH CENTRAL WISCONSIN

CITY           SKY/WX    TMP DP  RH WIND       PRES   REMARKS
MANITOWISH WTR CLOUDY    40  30  69 SE7       30.02F WCI  35
ARBOR VITAE    CLOUDY    42  32  69 SE10G18   30.04S
WOODRUFF       CLOUDY    42  32  69 SE10G18   30.04S
RHINELANDER    PTCLDY    38  31  76 E9        30.07F WCI  31
EAGLE RIVER    CLOUDY    37  29  73 SE7       30.07F WCI  31
LAND O LAKES   PTCLDY    38  30  72 SE9       30.08F WCI  32
PHILLIPS       CLOUDY    40  32  73 SE8       30.00F WCI  35
TOMAHAWK       PTCLDY    38  29  69 SE5       30.04F WCI  35
MEDFORD        PTCLDY    38  31  75 SE10      30.01F WCI  31
MERRILL        NOT AVBL
$$

WIZ029-030-035-036-043>047-201100-
CENTRAL WISCONSIN

CITY           SKY/WX    TMP DP  RH WIND       PRES   REMARKS
WAUSAU         PTCLDY    37  29  72 SE8       30.05F WCI  31
MOSINEE        CLOUDY    37  30  75 E8        30.06F WCI  31
MARSHFIELD     CLOUDY    39  30  70 E8        30.01F WCI  33
STEVENS POINT  PTCLDY    35  29  79 E5        30.07S WCI  31
WAUPACA        PTCLDY    33  30  88 CALM      30.10S
WAUTOMA        CLOUDY    35  30  82 NE3       30.08F
WISC RAPIDS    PTCLDY    41  32  70 SE7       30.05F
CAMP DOUGLAS   CLOUDY    42  35  75 SE12      30.01F
$$

WIZ011>013-019>022-031-037>040-048>050-201100-
NORTHEAST WISCONSIN

CITY           SKY/WX    TMP DP  RH WIND       PRES   REMARKS
ANTIGO         CLOUDY    35  30  83 SE10      30.10S WCI  27
SHAWANO        CLOUDY    33  31  90 CALM      30.13R
OCONTO         CLOUDY    32  30  92 CALM      30.14S
STURGEON BAY   CLOUDY    37  33  85 E8        30.16R WCI  31
GREEN BAY      CLOUDY    34  31  88 NE6       30.12F WCI  29
MANITOWOC      CLOUDY    31  28  89 MISG      30.14F
APPLETON       CLOUDY    37  28  70 E7        30.09S WCI  32
CLINTONVILLE   CLOUDY    32  30  93 NE6       30.11S WCI  26
OSHKOSH        CLOUDY    41  28  60 SE7       30.10R
$$

WIZ032>034-041-042-053>061-201100-
SOUTHWEST WISCONSIN

CITY           SKY/WX    TMP DP  RH WIND       PRES   REMARKS
LA CROSSE      CLOUDY    52  42  69 SE7       29.94F
SPARTA         MOCLDY    49  41  73 E7        29.98F
VIROQUA        CLOUDY    47  39  73 SE12      29.98F
BOSCOBEL       MOCLDY    48  38  68 NE5       30.00F
PRAIRIE DU CHI CLOUDY    51  42  71 SE8       29.98R
PLATTEVILLE    PTCLDY    43  41  92 E13       30.01S
$$

WIZ056-057-062-063-064-067-068-201100-
SOUTH CENTRAL WISCONSIN

CITY           SKY/WX    TMP DP  RH WIND       PRES   REMARKS
REEDSBURG      PTCLDY    41  37  83 NE5       30.03F
BARABOO/DELLS  PTCLDY    44  36  73 CALM      30.04F
LONE ROCK      CLOUDY    45  38  76 E9        30.03F
MINERAL POINT  MOCLDY    48  43  81 SE13      30.02R
MADISON        CLOUDY    44  36  73 E3        30.05F
MIDDLETON      CLOUDY    44  37  78 SE5       30.05F
WATERTOWN      PTCLDY    39  32  76 E5        30.09S
MONROE         MOCLDY    45  41  87 E9        30.05S
JANESVILLE     CLOUDY    39  37  93 E7        30.06F WCI  34
$$

WIZ051-052-058>065-066-070>072-201100-
SOUTHEAST WISCONSIN

CITY           SKY/WX    TMP DP  RH WIND       PRES   REMARKS
MILWAUKEE      CLOUDY    39  34  82 CALM      30.12F
WAUKESHA         N/A     34  30  86 E5        30.12F WCI  30
MILWAUKEE/TIMM CLOUDY    34  30  86 CALM      30.12F
RACINE         PTCLDY    38  32  79 E3        30.14F
KENOSHA        CLOUDY    38  31  76 SE6       30.12R WCI  33
FOND DU LAC    PTCLDY    42  28  57 SE10      30.10S
SHEBOYGAN      CLOUDY    32  29  88 CALM      30.13F
WEST BEND      CLOUDY    30  30 100 CALM      30.12F
JUNEAU         CLOUDY    39  32  75 E10       30.09F WCI  33
$$

LSZ147-162-201100-
LAKE SUPERIOR

STATION/POSITION TIME  TEMP    WIND        PRES    WAVE
                       AIR SEA DIR/SP/G            HT/PER
                 (UTC) (F)     (DEG/KT/KT) (MB)    (FT/S)
DEVILS ISLAND    1000   41     100/ 11/ 12 1014.8F
PORT WING        0940   35      40/ 12/ 14 1013.5F
SAXON HARBOR     0940   49     170/  7/ 15 1014.6F
$$

LMZ867-665-643>646-201100-
LAKE MICHIGAN

STATION/POSITION TIME  TEMP    WIND        PRES    WAVE
                       AIR SEA DIR/SP/G            HT/PER
                 (UTC) (F)     (DEG/KT/KT) (MB)    (FT/S)
CHAMBERS ISLAND  0940   33      70/  3/  4 1021.3R
NORTHPORT PIER   0940   35     150/  2/  4 1022.4R
SISTER BAY       0935   36     130/  6/  9   N/A
ALGOMA LAKESHORE 0940             CALM       N/A
KEWAUNEE LAKESHO 0948   37      CALM  /  1 1020.6R
SHEBOYGAN LAKESH 1000   38      40/  3/  3 1020.9F
PORT WASHINGTON  0930   38      30/  4/  6 1021.7R
MILWAUKEE LAKESH 0950   39      40/  5/  6   N/A
KENOSHA   LAKESH 1000   36        CALM     1020.0
$$

TC  - TEMPERATURE IN CELSIUS
VSB - VISIBILITY IN STATUTE MILES
WCI - WIND CHILL INDEX
HX  - HEAT INDEX





USA.gov is the U.S. government's official web portal to all federal, state and local government web resources and services.